Regional Weather Roundup
Issued by NWS

Home | Current Version | Previous Version | Graphics & Text | Print | Product List | Glossary On
Versions: 1 2 3 4 5 6 7 8 9 10 11 12 13 14 15 16 17 18 19 20 21 22 23 24 25 26 27 28 29 30 31 32 33 34 35 36 37 38 39 40 41 42 43 44 45 46 47 48 49 50
000
ASUS43 KOAX 151810
RWRNE

WEATHER ROUNDUP FOR NEBRASKA
NATIONAL WEATHER SERVICE OMAHA NE
100 PM CDT TUE APR 15 2014

NOTES: SATELLITE DATA IS BEING USED TO AUGMENT CLOUD COVER ABOVE
       12000 FEET.
       "FAIR" INDICATES FEW OR NO CLOUDS BELOW 12,000 FEET WITH NO
       SIGNIFICANT WEATHER AND/OR OBSTRUCTIONS TO VISIBILITY.

  * THESE STATIONS DO NOT REPORT WEATHER SUCH AS RAIN...SNOW OR FOG.

NEZ001>004-019>022-054>056-151900-
NEBRASKA PANHANDLE

CITY           SKY/WX    TMP DP  RH WIND       PRES   REMARKS
SCOTTSBLUFF    PTSUNNY   58  23  26 W22G29    29.83F
6HR MIN TEMP:  22; 6HR MAX TEMP:  58;

ALLIANCE       CLOUDY    56  23  27 W18       29.80F
6HR MIN TEMP:  22; 6HR MAX TEMP:  56;

CHADRON        PTSUNNY   58  27  30 W14       29.76F
6HR MIN TEMP:  24; 6HR MAX TEMP:  59;

SIDNEY         PTSUNNY   58  22  24 W17G24    29.87F
6HR MIN TEMP:  23; 6HR MAX TEMP:  59;

$$

NEZ057>060-069>072-079>082-151900-
SOUTHWEST NEBRASKA

CITY           SKY/WX    TMP DP  RH WIND       PRES   REMARKS
NORTH PLATTE   SUNNY     56  24  29 S14G24    29.87F
6HR MIN TEMP:  18; 6HR MAX TEMP:  57;

IMPERIAL       MOSUNNY   59  26  28 SW15G22   29.89F
6HR MIN TEMP:  27; 6HR MAX TEMP:  59;

LEXINGTON      SUNNY     53  29  39 S22G29    29.94F
MCCOOK         SUNNY     57  31  37 S15       29.93F
6HR MIN TEMP:  24; 6HR MAX TEMP:  57;

$$

NEZ005>010-023>029-035>040-094-151900-
NORTH CENTRAL NEBRASKA

CITY           SKY/WX    TMP DP  RH WIND       PRES   REMARKS
VALENTINE      MOSUNNY   57  24  28 S15G22    29.78F
6HR MIN TEMP:  25; 6HR MAX TEMP:  58;

BROKEN BOW     MOSUNNY   52  26  36 S22G36    29.91F
6HR MIN TEMP:  17; 6HR MAX TEMP:  52;

ORD            SUNNY     47  25  42 S17G26    29.95F
6HR MIN TEMP:  18; 6HR MAX TEMP:  47;

$$

NEZ041-046>049-061>064-073>077-083>087-151900-
SOUTH CENTRAL NEBRASKA

CITY           SKY/WX    TMP DP  RH WIND       PRES   REMARKS
GRAND ISLAND   SUNNY     49  28  44 S23G29    30.01F
6HR MIN TEMP:  27; 6HR MAX TEMP:  50;

HASTINGS       SUNNY     51  22  31 S15G26    30.00F
6HR MIN TEMP:  23; 6HR MAX TEMP:  51;

KEARNEY *      SUNNY     52  28  40 S21G28    29.97F
YORK           SUNNY     46  28  49 S17       30.06F
$$

NEZ011>018-030>034-042>045-151900-
NORTHEAST NEBRASKA

CITY           SKY/WX    TMP DP  RH WIND       PRES   REMARKS
NORFOLK        SUNNY     42  24  49 SE21G28   30.03F
6HR MIN TEMP:  20; 6HR MAX TEMP:  42;

BLAIR          SUNNY     42  18  38 S13       30.10F
COLUMBUS *     SUNNY     45  25  45 S17       30.07F
FREMONT        SUNNY     44  18  35 S10G17    30.11F
TEKAMAH        SUNNY     43  21  41 S12G17    30.11F
6HR MIN TEMP:  20; 6HR MAX TEMP:  43;

$$

NEZ050>053-065>068-078-088>093-151900-
SOUTHEAST NEBRASKA

CITY           SKY/WX    TMP DP  RH WIND       PRES   REMARKS
LINCOLN        SUNNY     48  21  34 S14G22    30.11F
6HR MIN TEMP:  23; 6HR MAX TEMP:  48;

OMAHA EPPLEY   MOSUNNY   42  17  36 S9        30.13F
6HR MIN TEMP:  23; 6HR MAX TEMP:  43;

FALLS CITY     SUNNY     47  22  37 SE9       30.16F
6HR MIN TEMP:  25; 6HR MAX TEMP:  48;

$$

NEZ044-045-051>053-067-151900-
OMAHA AREA

CITY           SKY/WX    TMP DP  RH WIND       PRES   REMARKS
OMAHA EPPLEY   MOSUNNY   42  17  36 S9        30.13F
6HR MIN TEMP:  23; 6HR MAX TEMP:  43;

BLAIR          SUNNY     42  18  38 S13       30.10F
FREMONT        SUNNY     44  18  35 S10G17    30.11F
OFFUTT AFB     SUNNY     45  20  38 SE6       30.13F
$$



USA.gov is the U.S. government's official web portal to all federal, state and local government web resources and services.